Presure
135 122 118 117 109 123 95 112 109 156 107 95 128 167 167 156 176 201 203 117 135 153 140 126 151 159 128 121 140 139 141 127 126 136 128 137 129 130 124 157 157 159 150
140 122 146 120 90 125 142 128 128 96 120 136 131 162 159 156 123 159 159 151 129 121 138 141 141 146 149 142 150 129 153 132 124 147 143 133 126 130 141 121 147 150 144
134 178 131 124 126 157 141 117 115 135 127 130 146 143 119 122 138 139 121 140 132 104 134 131 127 137 133 148 123 123 138 144 113 131 134 136 129 142 153 121 121 153 163
132 131 139 108 116 150 121 118 134 119 121 129 111 112 128 128 133 121 126 123 129 129 144 134 117 138 125 110 114 133 132 133 128 129 144 137 136 144 120 143 153 165 201
133 127 126 127 145 133 123 140 110 107 146 146 128 121 135 136 126 125 137 140 123 125 135 137 137 128 125 126 127 139 123 111 151 142 153 159 155 147 111 119 137 176 192
131 123 144 113 138 104 152 110 129 149 136 133 114 139 130 137 137 118 137 142 146 134 123 104 121 123 140 156 154 113 123 126 133 129 143 141 143 151 152 148 169 201 191
131 124 129 132 131 131 138 122 103 131 112 147 137 128 123 131 130 139 142 140 129 137 123 140 132 137 140 139 140 144 144 156 158 144 136 136 151 161 160 163 204 199 191
136 147 146 135 132 134 136 129 114 137 126 139 128 134 129 133 133 137 119 127 140 135 128 108 114 137 135 141 156 131 143 131 142 141 149 158 159 165 181 191 184 188 188
133 136 135 108 138 137 145 121 122 115 126 140 131 121 139 133 132 132 147 148 122 140 123 140 143 135 148 150 144 144 150 141 120 155 157 161 163 176 185 187 184 176 175
144 131 133 126 135 146 124 141 145 136 145 144 105 127 132 128 117 102 129 102 165 110 117 143 149 145 146 148 135 145 121 149 157 137 166 164 172 184 183 121 176 174 174
136 140 127 137 132 131 142 119 123 123 130 125 115 135 127 130 144 141 141 139 138 125 136 143 141 150 140 105 115 156 154 159 160 166 172 162 177 189 175 182 172 175 171
140 134 133 132 134 134 132 130 140 144 144 120 122 124 134 143 138 136 132 141 134 143 150 155 144 142 145 139 140 153 157 156 173 172 168 173 182 188 169 171 174 171 177
145 115 134 137 128 128 131 130 139 137 140 140 142 146 138 138 138 141 140 146 134 134 149 134 142 144 153 158 159 155 105 131 163 108 190 184 174 178 171 172 174 214 221
115 129 146 147 142 141 141 131 136 150 144 144 141 132 139 138 135 137 140 152 148 153 138 127 151 157 154 154 152 139 173 153 175 187 141 184 177 179 180 200 197 221 221
145 138 134 138 140 142 131 135 87 138 133 116 115 143 138 113 106 147 126 147 150 80 157 158 161 161 152 164 171 129 172 181 175 179 187 190 184 202 200 199 210 222 217
135 134 130 135 150 107 110 147 83 111 150 153 81 87 130 136 147 148 152 158 118 151 161 151 156 156 166 161 172 174 174 176 171 184 185 195 208 203 219 213 218 216 130
148 148 143 141 141 142 144 144 145 143 151 147 146 156 152 147 147 155 151 155 148 78 157 162 78 170 175 181 178 176 175 173 175 185 228 229 229 223 220 216 221 202 213
141 144 148 144 143 152 153 148 148 149 148 150 147 149 151 156 153 157 154 157 162 161 161 167 173 182 185 176 185 183 177 180 195 207 217 200 190 190 193 216 223 188 209
147 146 145 148 146 144 143 141 145 147 147 149 151 151 149 146 153 156 159 159 161 170 174 180 186 179 173 183 178 192 187 192 207 219 174 194 168 197 201 206 204 203 213
143 146 149 149 155 152 150 151 152 151 149 151 152 152 160 163 160 162 165 170 172 176 163 177 176 179 182 182 198 184 184 174 230 159 194 187 179 189 185 206 197 201 203
157 157 159 157 154 155 155 148 150 153 152 159 161 162 160 159 168 173 172 182 182 156 176 179 169 187 194 192 194 184 162 154 174 183 175 187 194 182 188 203 183 187 202
159 160 158 156 157 158 158 159 157 158 162 162 158 163 165 167 163 166 171 151 170 179 175 159 187 191 184 170 163 195 178 183 181 223 185 198 192 192 206 211 211 198 202
156 156 157 158 157 155 157 166 167 159 157 163 176 175 177 173 177 173 144 173 182 176 166 183 165 179 177 164 171 187 196 184 200 197 198 197 211 221 202 213 202 195 196
143 161 159 161 163 172 175 158 159 163 165 148 169 139 173 184 190 161 190 159 179 156 183 173 192 162 154 185 190 202 222 219 210 229 236 228 223 223 219 215 211 211 207
174 172 175 178 177 175 174 173 134 138 137 162 183 181 175 165 178 179 182 172 155 188 178 193 199 155 217 236 218 231 213 213 234 241 243 251 248 251 242 235 226 219 218
180 178 150 149 149 177 176 180 171 147 176 175 168 171 186 177 175 160 172 161 189 200 188 198 192 191 215 221 218 208 233 244 258 260 257 249 244 242 240 247 244 237 237
Wind_Speed
36 31 27 25 25 24 22 25 25 26 24 22 23 25 26 26 23 19 24 23 28 32 31 27 34 37 30 29 36 36 39 36 38 39 36 39 38 37 39 55 55 56 50
37 32 34 28 22 28 30 27 27 27 26 24 25 27 26 27 25 27 28 29 26 24 32 33 35 39 39 37 44 35 48 36 35 49 48 41 39 40 50 41 52 52 49
35 44 34 32 31 36 32 30 29 27 27 25 26 25 25 26 28 28 26 31 28 29 31 30 30 36 35 44 34 38 45 49 37 42 45 46 42 54 59 43 44 55 61
36 33 32 32 32 35 31 32 31 31 30 30 29 30 30 29 30 31 30 29 31 32 42 36 32 38 35 35 35 43 43 45 42 42 54 50 49 56 43 53 63 75 66
38 39 38 35 33 35 35 32 33 33 33 33 29 31 31 32 32 32 37 39 33 36 39 40 41 38 38 43 44 54 43 37 60 56 62 67 66 60 36 40 53 78 67
41 42 38 36 36 34 37 36 35 34 33 31 35 34 33 36 36 36 39 44 46 41 36 35 39 40 54 56 56 41 46 49 54 52 59 57 61 68 69 63 77 67 66
42 44 43 41 40 38 36 35 34 35 36 38 37 37 37 36 38 42 45 46 40 47 40 51 47 53 55 56 57 60 62 68 69 63 59 58 71 77 76 77 67 67 67
43 45 45 43 40 39 38 40 38 39 37 43 40 40 37 39 42 45 40 45 51 47 48 40 43 55 56 60 68 55 61 56 62 64 71 77 78 82 80 74 71 66 65
43 44 44 32 42 41 45 41 41 44 41 45 41 43 48 44 44 44 54 56 46 55 47 59 61 57 66 67 62 65 69 64 49 79 80 81 83 82 76 71 70 70 70
51 45 45 42 45 49 43 46 49 49 52 51 40 42 46 46 47 35 43 37 59 47 50 61 66 63 65 68 60 69 53 73 80 66 88 87 84 79 76 45 73 74 73
45 53 45 50 46 45 53 40 46 45 45 47 39 51 48 50 61 58 56 57 58 53 57 63 62 69 63 45 52 80 79 83 83 87 87 79 84 77 77 73 75 75 75
58 52 50 46 48 50 48 47 55 59 61 53 52 52 56 62 59 54 53 62 57 64 69 73 65 65 68 68 70 80 84 83 90 87 87 81 81 76 77 78 79 78 80
66 45 57 58 48 49 50 50 57 60 62 61 64 66 63 61 58 65 63 70 56 58 73 62 67 71 82 86 88 83 53 64 90 51 84 83 79 78 79 81 83 74 63
48 57 66 66 64 66 65 53 58 70 69 67 66 57 64 64 62 62 67 79 74 78 64 62 77 85 84 83 82 76 92 82 92 87 70 84 82 80 81 80 79 71 61
66 58 55 60 62 66 58 61 33 63 59 51 51 70 65 51 48 77 63 75 77 30 82 85 89 92 82 93 94 72 94 92 91 92 93 91 86 88 83 81 76 71 63
57 56 56 60 74 48 50 77 33 49 76 77 33 39 65 65 79 81 84 89 64 74 90 78 85 86 94 91 95 93 93 93 91 96 93 92 87 86 79 77 75 68 53
72 75 71 69 70 72 78 75 75 72 79 72 73 83 81 79 77 87 81 86 71 30 88 96 35 97 98 97 95 94 93 92 93 96 87 83 79 78 77 76 74 69 66
67 74 80 75 76 83 84 79 78 79 79 80 77 80 83 89 85 91 88 91 97 95 96 99 102 103 101 94 95 94 94 96 94 93 86 86 83 79 78 76 70 75 68
82 82 77 80 78 72 72 70 75 79 79 82 85 83 77 70 84 91 95 98 99 103 101 104 104 97 92 96 95 99 96 95 96 87 86 81 81 83 78 75 75 75 70
75 76 79 79 89 86 83 83 85 86 84 87 89 88 95 99 93 96 101 103 101 102 86 98 98 99 100 98 104 94 91 88 92 82 87 90 88 88 85 81 82 78 76
96 95 96 95 90 87 88 83 86 88 86 97 96 98 94 93 103 103 98 105 106 78 100 102 92 107 108 104 102 94 83 81 91 90 89 89 91 88 91 88 85 85 80
96 96 94 92 92 94 95 96 95 94 97 97 91 97 98 98 95 97 100 76 96 103 99 86 107 107 102 93 87 93 90 93 93 91 93 93 90 93 94 89 86 88 84
89 89 92 94 93 88 92 100 101 93 95 102 107 107 106 99 104 102 72 99 108 100 90 104 93 100 100 91 97 100 97 94 99 101 101 100 96 90 95 91 93 91 89
67 93 91 94 96 101 103 87 90 94 92 77 101 67 104 112 111 80 107 83 100 88 105 97 109 95 89 97 105 110 114 110 107 101 98 97 98 96 94 93 94 91 90
103 102 104 105 105 105 104 102 64 67 65 88 108 108 104 91 101 97 100 91 85 103 99 111 111 87 110 105 116 109 117 113 112 110 109 105 102 97 95 96 95 92 93
103 102 78 77 76 99 97 104 96 76 101 100 89 93 106 97 101 89 94 90 107 113 106 111 108 106 113 115 116 116 114 116 113 106 104 103 100 97 94 89 89 86 85
Wind_Direction
230 229 227 231 233 238 242 241 246 242 252 258 257 257 259 264 272 277 271 278 278 279 293 287 286 291 288 282 297 300 303 295 293 296 288 300 289 283 283 304 305 305 300
231 231 238 231 253 238 250 247 248 251 250 262 262 261 269 274 267 279 279 281 279 276 291 291 294 296 298 302 299 289 299 289 283 303 303 295 286 285 296 287 296 296 293
233 216 238 231 238 229 246 242 243 258 251 256 271 277 262 267 282 284 267 287 283 270 291 287 286 303 299 299 283 288 304 301 286 294 296 295 287 298 303 289 292 300 308
232 236 241 238 238 238 248 247 253 247 248 257 261 259 272 272 279 271 275 272 285 285 295 291 284 291 285 280 289 300 297 296 288 290 301 297 295 299 289 297 307 310 311
231 232 235 239 250 244 243 255 246 252 263 268 265 261 277 282 269 273 284 291 272 289 292 296 298 294 289 294 290 300 286 289 302 298 306 310 307 301 292 297 292 310 309
231 233 248 236 247 243 250 246 257 255 267 268 257 278 271 284 286 263 289 289 289 291 277 279 277 283 301 297 299 285 287 291 292 292 299 297 300 305 305 302 308 309 306
235 234 236 240 242 246 257 254 256 264 261 273 273 267 264 277 277 288 288 289 281 289 278 295 297 297 298 297 297 298 299 305 307 300 295 292 304 306 305 306 311 307 305
243 249 250 247 244 251 258 252 258 269 260 270 267 275 273 281 282 287 283 286 288 289 290 282 284 295 294 296 302 291 298 297 298 297 302 305 306 307 309 310 309 309 307
240 248 248 253 252 254 259 259 250 252 259 270 273 262 277 278 279 280 286 286 276 293 278 294 296 292 299 300 299 299 302 296 289 305 306 305 306 310 310 308 307 305 305
248 246 248 243 256 257 246 265 265 266 270 271 266 268 275 268 263 280 276 282 288 280 280 294 297 296 297 298 294 299 287 301 304 291 307 306 307 310 308 287 306 304 304
249 251 251 255 258 254 263 265 264 263 262 260 275 272 269 274 284 287 290 290 289 288 291 294 293 297 294 283 289 303 302 304 305 306 306 304 307 308 306 306 302 302 302
247 249 251 253 258 260 257 257 270 271 272 262 260 265 276 281 286 287 284 289 286 291 294 296 293 295 298 292 293 300 304 302 304 305 303 304 306 305 301 301 302 301 302
244 243 252 254 252 254 260 260 270 267 269 275 276 276 281 284 285 286 285 289 282 285 295 289 295 298 301 303 303 301 285 296 302 286 305 303 301 301 300 300 298 307 305
242 246 248 252 256 260 262 262 267 266 269 272 272 276 281 282 280 284 287 290 291 293 289 292 299 301 302 300 299 297 303 299 302 304 296 302 298 298 298 305 303 309 305
244 247 249 253 256 258 260 264 259 267 268 267 273 278 279 278 278 287 284 288 290 291 297 298 300 301 299 300 301 295 301 303 300 302 304 304 301 304 304 303 308 308 304
245 246 247 254 257 256 260 264 260 264 270 273 276 271 280 279 285 287 290 291 285 296 296 296 299 298 300 299 301 301 301 302 299 302 301 303 302 301 303 304 306 305 294
249 251 254 256 260 262 264 267 270 273 274 276 277 279 280 281 283 286 289 292 294 299 297 297 296 299 302 302 301 300 299 297 297 300 304 302 301 300 301 301 302 301 299
254 255 254 258 260 258 260 266 270 273 275 277 279 279 280 282 286 287 290 292 293 295 296 297 299 302 303 299 300 299 295 296 300 303 303 300 300 300 299 297 298 298 297
252 254 256 257 259 265 267 269 271 273 276 277 278 281 283 285 288 288 290 292 293 293 295 298 300 299 298 300 297 300 297 298 303 303 296 297 299 299 297 296 297 297 296
254 256 257 260 259 259 263 267 269 271 275 277 279 281 283 284 287 289 288 288 291 295 293 298 298 298 298 296 302 295 295 296 303 295 296 296 297 297 296 296 296 295 295
249 251 252 256 261 266 267 268 270 272 275 275 278 279 283 286 285 288 291 292 294 289 296 297 295 299 301 299 299 295 294 295 294 294 296 295 296 295 296 295 295 295 293
250 252 255 259 262 263 265 267 271 273 274 276 279 280 281 283 286 289 290 288 294 294 295 291 297 299 296 292 293 297 296 295 294 295 293 295 293 294 293 292 291 292 290
250 256 257 259 261 265 267 266 266 271 275 276 277 278 280 283 284 286 284 289 291 293 291 295 291 293 292 294 293 295 294 294 294 295 296 296 293 289 292 290 290 291 290
250 254 257 259 260 261 262 266 268 269 272 274 278 280 283 285 285 283 287 285 290 285 291 289 294 288 293 294 296 297 298 297 296 295 291 289 288 287 286 285 286 286 287
252 255 257 259 261 263 265 267 268 270 271 275 278 279 282 283 286 288 288 285 281 291 288 295 295 290 297 296 298 295 296 296 295 294 291 288 286 283 281 281 282 282 282
254 257 258 261 263 266 269 270 270 268 276 278 278 277 281 284 285 284 288 286 291 294 293 295 295 295 296 296 295 295 295 294 289 286 285 285 285 284 282 279 277 278 277